When you browse on this site, cookies collect data to enhance your experience and personalize the content and advertising you see.
Visit our Privacy Policy to learn more. By continuing to use the site, you agree to this use of cookies and data.
  • In Sweden
  • List of Countries
  • For 7 days
  • Water Temperature
  • Satellite Maps
  • Weather Map
  • Weather Widgets
  • user-avatar
    Login

    Hourly Weather Omel'horod

    Today, 20 April, Saturday

    Time Temperature Precipitation Wind Pressure Humidity
    00:00 +4°C° 0 mm 3 mps 753 mmHg 61%
    01:00 +5°C° 0 mm 2 mps 753 mmHg 63%
    02:00 +5°C° 0 mm 2 mps 753 mmHg 65%
    03:00 +4°C° 0 mm 2 mps 753 mmHg 67%
    04:00 +4°C° 0 mm 2 mps 753 mmHg 68%
    05:00 +4°C° 0 mm 2 mps 753 mmHg 70%
    06:00 +5°C° 0 mm 2 mps 753 mmHg 64%
    07:00 +7°C° 0 mm 2 mps 753 mmHg 58%
    08:00 +8°C° 0 mm 2 mps 754 mmHg 52%
    09:00 +10°C° 0 mm 3 mps 754 mmHg 46%
    10:00 +11°C° 0 mm 3 mps 754 mmHg 41%
    11:00 +12°C° 0 mm 4 mps 753 mmHg 36%
    12:00 +12°C° 0 mm 3 mps 753 mmHg 35%
    13:00 +12°C° 0 mm 3 mps 753 mmHg 35%
    14:00 +13°C° 0 mm 3 mps 753 mmHg 35%
    15:00 +12°C° 0 mm 3 mps 753 mmHg 36%
    16:00 +12°C° 0 mm 3 mps 752 mmHg 38%
    17:00 +13°C° 0 mm 2 mps 752 mmHg 39%
    18:00 +10°C° 0 mm 2 mps 752 mmHg 43%
    19:00 +9°C° 0 mm 2 mps 752 mmHg 47%
    20:00 +9°C° 0 mm 1 mps 753 mmHg 51%
    21:00 +9°C° 0 mm 1 mps 752 mmHg 52%
    22:00 +8°C° 0 mm 1 mps 752 mmHg 53%
    23:00 +8°C° 0 mm 1 mps 752 mmHg 54%

    Tomorrow, 21 April, Sunday

    Time Temperature Precipitation Wind Pressure Humidity
    00:00 +7°C° 0 mm 1 mps 752 mmHg 54%
    01:00 +7°C° 0 mm 1 mps 752 mmHg 55%
    02:00 +7°C° 0 mm 1 mps 752 mmHg 55%
    03:00 +7°C° 0 mm 1 mps 752 mmHg 57%
    04:00 +6°C° 0 mm 1 mps 752 mmHg 58%
    05:00 +5°C° 0 mm 0 mps 752 mmHg 59%
    06:00 +8°C° 0 mm 1 mps 752 mmHg 55%
    07:00 +9°C° 0 mm 1 mps 752 mmHg 52%
    08:00 +11°C° 0 mm 1 mps 752 mmHg 48%
    09:00 +12°C° 0 mm 2 mps 752 mmHg 44%
    10:00 +12°C° 0 mm 2 mps 752 mmHg 40%
    11:00 +13°C° 0 mm 2 mps 752 mmHg 36%
    12:00 +13°C° 0 mm 2 mps 752 mmHg 36%
    13:00 +14°C° 0 mm 2 mps 752 mmHg 36%
    14:00 +14°C° 0 mm 2 mps 752 mmHg 37%
    15:00 +14°C° 0 mm 2 mps 752 mmHg 38%
    16:00 +14°C° 0 mm 2 mps 752 mmHg 40%
    17:00 +13°C° 0 mm 2 mps 751 mmHg 41%
    18:00 +12°C° 0 mm 2 mps 752 mmHg 44%
    19:00 +12°C° 0 mm 2 mps 752 mmHg 46%
    20:00 +11°C° 0 mm 1 mps 752 mmHg 49%
    21:00 +10°C° 0 mm 1 mps 752 mmHg 50%
    22:00 +10°C° 0 mm 1 mps 752 mmHg 51%
    23:00 +9°C° 0 mm 1 mps 752 mmHg 52%

    Day after tomorrow, 22 April, Monday

    Time Temperature Precipitation Wind Pressure Humidity
    00:00 +8°C° 0 mm 2 mps 753 mmHg 53%
    01:00 +8°C° 0 mm 2 mps 753 mmHg 53%
    02:00 +8°C° 0 mm 2 mps 753 mmHg 54%
    03:00 +8°C° 0 mm 2 mps 753 mmHg 54%
    04:00 +8°C° 0 mm 2 mps 753 mmHg 55%
    05:00 +8°C° 0 mm 2 mps 753 mmHg 56%
    06:00 +9°C° 0 mm 3 mps 753 mmHg 53%
    07:00 +10°C° 0 mm 3 mps 754 mmHg 51%
    08:00 +11°C° 0 mm 4 mps 754 mmHg 49%
    09:00 +12°C° 0 mm 4 mps 754 mmHg 45%
    10:00 +13°C° 0 mm 4 mps 754 mmHg 42%
    11:00 +13°C° 0 mm 4 mps 754 mmHg 38%
    12:00 +13°C° 0 mm 4 mps 754 mmHg 38%
    13:00 +13°C° 0 mm 4 mps 754 mmHg 38%
    14:00 +14°C° 0 mm 4 mps 754 mmHg 37%
    15:00 +13°C° 0 mm 4 mps 754 mmHg 39%
    16:00 +13°C° 0 mm 4 mps 754 mmHg 40%
    17:00 +13°C° 0 mm 4 mps 754 mmHg 41%
    18:00 +12°C° 0 mm 3 mps 754 mmHg 46%
    19:00 +11°C° 0 mm 3 mps 754 mmHg 50%
    20:00 +10°C° 0 mm 2 mps 755 mmHg 54%
    21:00 +10°C° 0 mm 2 mps 755 mmHg 55%
    22:00 +9°C° 0 mm 2 mps 755 mmHg 55%
    23:00 +9°C° 0 mm 2 mps 755 mmHg 56%

    23 April, Tuesday

    Time Temperature Precipitation Wind Pressure Humidity
    00:00 +9°C° 0 mm 2 mps 755 mmHg 56%
    01:00 +9°C° 0 mm 2 mps 755 mmHg 56%
    02:00 +9°C° 0 mm 2 mps 756 mmHg 56%
    03:00 +9°C° 0 mm 2 mps 756 mmHg 57%
    04:00 +8°C° 0 mm 2 mps 756 mmHg 58%
    05:00 +8°C° 0 mm 2 mps 756 mmHg 59%
    06:00 +9°C° 0 mm 3 mps 756 mmHg 54%
    07:00 +11°C° 0 mm 3 mps 756 mmHg 49%
    08:00 +12°C° 0 mm 4 mps 756 mmHg 44%
    09:00 +13°C° 0 mm 4 mps 756 mmHg 41%
    10:00 +13°C° 0 mm 4 mps 757 mmHg 38%
    11:00 +14°C° 0 mm 4 mps 757 mmHg 35%
    12:00 +14°C° 0 mm 3 mps 757 mmHg 35%
    13:00 +14°C° 0 mm 3 mps 756 mmHg 36%
    14:00 +14°C° 0 mm 3 mps 756 mmHg 36%
    15:00 +14°C° 0 mm 3 mps 756 mmHg 37%
    16:00 +14°C° 0 mm 3 mps 756 mmHg 39%
    17:00 +14°C° 0 mm 3 mps 756 mmHg 40%
    18:00 +13°C° 0 mm 3 mps 756 mmHg 44%
    19:00 +12°C° 0 mm 3 mps 756 mmHg 49%
    20:00 +12°C° 0 mm 2 mps 756 mmHg 53%
    21:00 +12°C° 0 mm 2 mps 756 mmHg 55%
    22:00 +10°C° 0 mm 2 mps 757 mmHg 58%
    23:00 +10°C° 0 mm 2 mps 757 mmHg 60%

    24 April, Wednesday

    Time Temperature Precipitation Wind Pressure Humidity
    00:00 +9°C° 0 mm 2 mps 757 mmHg 61%
    01:00 +9°C° 0 mm 2 mps 757 mmHg 63%
    02:00 +8°C° 0 mm 2 mps 757 mmHg 64%
    03:00 +8°C° 0 mm 2 mps 757 mmHg 65%
    04:00 +7°C° 0 mm 2 mps 757 mmHg 65%
    05:00 +7°C° 0 mm 2 mps 757 mmHg 66%
    06:00 +9°C° 0 mm 2 mps 757 mmHg 61%
    07:00 +11°C° 0 mm 3 mps 757 mmHg 56%
    08:00 +13°C° 0 mm 3 mps 758 mmHg 51%
    09:00 +13°C° 0 mm 3 mps 758 mmHg 48%
    10:00 +14°C° 0 mm 4 mps 757 mmHg 45%
    11:00 +15°C° 0 mm 4 mps 757 mmHg 41%
    12:00 +15°C° 0 mm 4 mps 757 mmHg 40%
    13:00 +17°C° 0 mm 4 mps 757 mmHg 40%
    14:00 +17°C° 0 mm 3 mps 757 mmHg 39%
    15:00 +17°C° 0 mm 3 mps 756 mmHg 40%
    16:00 +17°C° 0 mm 3 mps 756 mmHg 40%
    17:00 +17°C° 0 mm 3 mps 756 mmHg 41%
    18:00 +14°C° 0 mm 3 mps 756 mmHg 46%
    19:00 +13°C° 0 mm 3 mps 756 mmHg 51%
    20:00 +11°C° 0 mm 3 mps 756 mmHg 56%
    21:00 +11°C° 0 mm 3 mps 757 mmHg 58%
    22:00 +10°C° 0 mm 3 mps 757 mmHg 59%
    23:00 +9°C° 0 mm 3 mps 757 mmHg 61%

    25 April, Thursday

    Time Temperature Precipitation Wind Pressure Humidity
    00:00 +9°C° 0 mm 2 mps 757 mmHg 63%
    01:00 +9°C° 0 mm 2 mps 757 mmHg 64%
    02:00 +8°C° 0 mm 2 mps 757 mmHg 66%
    03:00 +8°C° 0 mm 2 mps 757 mmHg 67%
    04:00 +9°C° 0 mm 1 mps 757 mmHg 68%
    05:00 +8°C° 0 mm 1 mps 757 mmHg 69%
    06:00 +10°C° 0 mm 1 mps 757 mmHg 63%
    07:00 +12°C° 0 mm 2 mps 757 mmHg 58%
    08:00 +14°C° 0 mm 2 mps 757 mmHg 52%
    09:00 +15°C° 0 mm 2 mps 757 mmHg 48%
    10:00 +16°C° 0 mm 3 mps 757 mmHg 44%
    11:00 +18°C° 0 mm 3 mps 757 mmHg 40%
    12:00 +18°C° 0 mm 3 mps 756 mmHg 39%
    13:00 +18°C° 0 mm 3 mps 756 mmHg 38%
    14:00 +19°C° 0 mm 3 mps 755 mmHg 37%
    15:00 +19°C° 0 mm 3 mps 755 mmHg 39%
    16:00 +19°C° 0 mm 3 mps 755 mmHg 40%
    17:00 +18°C° 0 mm 3 mps 754 mmHg 42%
    18:00 +17°C° 0 mm 2 mps 754 mmHg 45%
    19:00 +16°C° 0 mm 2 mps 754 mmHg 49%
    20:00 +15°C° 0 mm 2 mps 754 mmHg 53%
    21:00 +14°C° 0 mm 2 mps 754 mmHg 55%
    22:00 +13°C° 0 mm 2 mps 754 mmHg 58%
    23:00 +12°C° 0 mm 2 mps 753 mmHg 60%
    Show more